NOZ783 ENAT-ENSB

Flight info

Callsign NOZ783
Flight time N/A
Altitude 36000
Route ELSEV DCT OLOLI DCT AMPIS
Aircraft B38M/M-SDE1FGHILORVWXY/HB1

Departure

Time 2026-04-29 23:23
Airport Alta Airport (ENAT)

Arrival

Time N/A
Airport Svalbard Airport, Longyear (ENSB)
Time Latitude Longitude Altitude Speed Heading
2026-04-29 22:57 69.97841 23.34718 38 ft 0 kts 211°
2026-04-29 23:16 69.97846 23.34727 38 ft 3 kts 211°
2026-04-29 23:16 69.97870 23.34770 38 ft 4 kts 211°
2026-04-29 23:16 69.97893 23.34810 38 ft 4 kts 211°
2026-04-29 23:17 69.97898 23.34818 38 ft 0 kts 211°
2026-04-29 23:19 69.97897 23.34813 38 ft 0 kts 233°
2026-04-29 23:20 69.97900 23.34779 34 ft 3 kts 296°
2026-04-29 23:20 69.97928 23.34686 36 ft 10 kts 311°
2026-04-29 23:20 69.97984 23.34489 36 ft 15 kts 302°
2026-04-29 23:20 69.98063 23.34231 38 ft 18 kts 308°
2026-04-29 23:21 69.98145 23.33985 38 ft 16 kts 325°
2026-04-29 23:21 69.98240 23.33923 38 ft 13 kts 30°
2026-04-29 23:21 69.98254 23.34080 38 ft 0 kts 121°
2026-04-29 23:21 69.98250 23.34102 38 ft 3 kts 121°
2026-04-29 23:22 69.98224 23.34213 37 ft 24 kts 125°
2026-04-29 23:22 69.97975 23.35366 37 ft 108 kts 121°
2026-04-29 23:22 69.97456 23.37832 71 ft 171 kts 122°
2026-04-29 23:22 69.96807 23.41010 492 ft 199 kts 118°
2026-04-29 23:23 69.96606 23.44869 1506 ft 174 kts 73°
2026-04-29 23:23 69.97150 23.47720 2658 ft 164 kts 47°
2026-04-29 23:23 69.98167 23.49758 2669 ft 196 kts 10°
2026-04-29 23:23 69.99495 23.49389 3316 ft 181 kts 330°
2026-04-29 23:24 70.00387 23.47213 4331 ft 166 kts 302°
2026-04-29 23:24 70.00793 23.43972 4791 ft 176 kts 278°
2026-04-29 23:24 70.00953 23.40478 5485 ft 172 kts 284°
2026-04-29 23:24 70.01176 23.36956 6000 ft 180 kts 285°
2026-04-29 23:25 70.01410 23.33350 6600 ft 181 kts 285°
2026-04-29 23:25 70.01648 23.29705 7024 ft 192 kts 285°
2026-04-29 23:25 70.02140 23.25897 7207 ft 208 kts 310°
2026-04-29 23:25 70.03276 23.23050 7450 ft 223 kts 321°
2026-04-29 23:26 70.04539 23.20180 7652 ft 240 kts 321°
2026-04-29 23:26 70.05892 23.17141 8018 ft 245 kts 322°
2026-04-29 23:26 70.07256 23.14103 8506 ft 250 kts 322°
2026-04-29 23:26 70.08656 23.11003 8950 ft 253 kts 322°
2026-04-29 23:27 70.10071 23.07879 9426 ft 257 kts 322°
2026-04-29 23:27 70.11506 23.04712 9886 ft 260 kts 323°
2026-04-29 23:27 70.12960 23.01499 10192 ft 267 kts 323°
2026-04-29 23:27 70.14487 22.98121 10207 ft 283 kts 323°
2026-04-29 23:28 70.16095 22.94563 10216 ft 296 kts 323°
2026-04-29 23:28 70.17821 22.91058 10216 ft 307 kts 333°
2026-04-29 23:28 70.19915 22.89420 10204 ft 319 kts 354°
2026-04-29 23:28 70.22168 22.89356 10192 ft 327 kts 356°
2026-04-29 23:29 70.24462 22.89385 10189 ft 332 kts 356°
2026-04-29 23:29 70.26763 22.89460 10099 ft 339 kts 357°
2026-04-29 23:29 70.29138 22.89561 10308 ft 336 kts 357°
2026-04-29 23:29 70.31490 22.89674 10374 ft 338 kts 357°
2026-04-29 23:30 70.32417 22.89721 10429 ft 337 kts 357°
2026-04-29 23:30 70.32784 22.89739 10451 ft 337 kts 357°
2026-04-29 23:30 70.35153 22.89863 10986 ft 339 kts 357°
2026-04-29 23:31 70.37466 22.89961 11684 ft 342 kts 357°
2026-04-29 23:31 70.39907 22.90105 12436 ft 345 kts 357°
2026-04-29 23:31 70.42315 22.90243 13114 ft 349 kts 356°
2026-04-29 23:31 70.44755 22.90381 13841 ft 352 kts 356°
2026-04-29 23:32 70.47212 22.90524 14458 ft 355 kts 356°
2026-04-29 23:32 70.49696 22.90661 15085 ft 359 kts 357°
2026-04-29 23:32 70.52202 22.90800 15716 ft 362 kts 357°
2026-04-29 23:32 70.54733 22.90940 16344 ft 365 kts 357°
2026-04-29 23:33 70.57163 22.91077 16947 ft 369 kts 357°
2026-04-29 23:33 70.59739 22.91220 17571 ft 371 kts 357°
2026-04-29 23:33 70.62334 22.91367 18143 ft 375 kts 357°
2026-04-29 23:33 70.64954 22.91514 18700 ft 378 kts 357°
2026-04-29 23:34 70.67597 22.91664 19208 ft 381 kts 357°
2026-04-29 23:34 70.70258 22.91815 19707 ft 384 kts 357°
2026-04-29 23:34 70.72942 22.91968 20183 ft 388 kts 357°
2026-04-29 23:34 70.75652 22.92122 20677 ft 390 kts 357°
2026-04-29 23:35 70.78379 22.92277 21162 ft 394 kts 357°
2026-04-29 23:35 70.81127 22.92435 21646 ft 397 kts 358°
2026-04-29 23:35 70.83894 22.92594 22112 ft 400 kts 358°
2026-04-29 23:35 70.86692 22.92755 22560 ft 404 kts 358°
2026-04-29 23:36 70.89513 22.92918 23011 ft 407 kts 358°